Stündliche Wetter Abay (Maktaaralskiy rayon)

Heute, 25 Juni, Freitag

Zeit Temperatur Niederschläge Wind Luftdruck Luftfeuchtigkeit
00:00 +28°C° 0 mm 3 m/S 733 mmHg 33%
01:00 +27°C° 0 mm 3 m/S 732 mmHg 35%
02:00 +26°C° 0 mm 3 m/S 732 mmHg 38%
03:00 +25°C° 0 mm 3 m/S 732 mmHg 41%
04:00 +24°C° 0 mm 3 m/S 732 mmHg 44%
05:00 +22°C° 0 mm 3 m/S 732 mmHg 47%
06:00 +25°C° 0 mm 3 m/S 733 mmHg 43%
07:00 +27°C° 0 mm 3 m/S 733 mmHg 39%
08:00 +28°C° 0 mm 3 m/S 733 mmHg 35%
09:00 +30°C° 0 mm 3 m/S 733 mmHg 31%
10:00 +33°C° 0 mm 3 m/S 733 mmHg 27%
11:00 +35°C° 0 mm 4 m/S 733 mmHg 24%
12:00 +35°C° 0 mm 4 m/S 733 mmHg 22%
13:00 +36°C° 0 mm 5 m/S 732 mmHg 20%
14:00 +37°C° 0 mm 5 m/S 732 mmHg 18%
15:00 +38°C° 0 mm 6 m/S 732 mmHg 17%
16:00 +38°C° 0 mm 6 m/S 732 mmHg 16%
17:00 +38°C° 0 mm 6 m/S 731 mmHg 15%
18:00 +35°C° 0 mm 6 m/S 732 mmHg 15%
19:00 +33°C° 0 mm 6 m/S 732 mmHg 16%
20:00 +29°C° 0 mm 5 m/S 732 mmHg 17%
21:00 +28°C° 0 mm 5 m/S 732 mmHg 19%
22:00 +26°C° 0 mm 4 m/S 732 mmHg 20%
23:00 +25°C° 0 mm 4 m/S 732 mmHg 22%

Morgen, 26 Juni, Samstag

Zeit Temperatur Niederschläge Wind Luftdruck Luftfeuchtigkeit
00:00 +24°C° 0 mm 3 m/S 732 mmHg 24%
01:00 +22°C° 0 mm 3 m/S 732 mmHg 26%
02:00 +21°C° 0 mm 3 m/S 732 mmHg 28%
03:00 +20°C° 0 mm 2 m/S 732 mmHg 30%
04:00 +20°C° 0 mm 2 m/S 732 mmHg 32%
05:00 +19°C° 0 mm 2 m/S 732 mmHg 33%
06:00 +21°C° 0 mm 2 m/S 732 mmHg 31%
07:00 +24°C° 0 mm 2 m/S 733 mmHg 28%
08:00 +26°C° 0 mm 3 m/S 733 mmHg 26%
09:00 +28°C° 0 mm 3 m/S 733 mmHg 23%
10:00 +30°C° 0 mm 3 m/S 733 mmHg 20%
11:00 +34°C° 0 mm 3 m/S 733 mmHg 17%
12:00 +35°C° 0 mm 3 m/S 733 mmHg 16%
13:00 +36°C° 0 mm 3 m/S 732 mmHg 15%
14:00 +37°C° 0 mm 3 m/S 732 mmHg 14%
15:00 +37°C° 0 mm 3 m/S 732 mmHg 13%
16:00 +37°C° 0 mm 3 m/S 731 mmHg 13%
17:00 +38°C° 0 mm 3 m/S 731 mmHg 13%
18:00 +35°C° 0 mm 3 m/S 731 mmHg 16%
19:00 +33°C° 0 mm 3 m/S 731 mmHg 18%
20:00 +30°C° 0 mm 3 m/S 731 mmHg 21%
21:00 +28°C° 0 mm 3 m/S 731 mmHg 22%
22:00 +27°C° 0 mm 2 m/S 731 mmHg 24%
23:00 +26°C° 0 mm 2 m/S 731 mmHg 25%

übermorgen, 27 Juni, Sonntag

Zeit Temperatur Niederschläge Wind Luftdruck Luftfeuchtigkeit
00:00 +25°C° 0 mm 2 m/S 730 mmHg 26%
01:00 +24°C° 0 mm 1 m/S 730 mmHg 27%
02:00 +23°C° 0 mm 1 m/S 730 mmHg 28%
03:00 +22°C° 0 mm 1 m/S 730 mmHg 29%
04:00 +22°C° 0 mm 1 m/S 731 mmHg 30%
05:00 +21°C° 0 mm 1 m/S 731 mmHg 31%
06:00 +24°C° 0 mm 1 m/S 731 mmHg 29%
07:00 +26°C° 0 mm 2 m/S 732 mmHg 26%
08:00 +28°C° 0 mm 2 m/S 732 mmHg 24%
09:00 +30°C° 0 mm 2 m/S 732 mmHg 22%
10:00 +34°C° 0 mm 2 m/S 732 mmHg 19%
11:00 +36°C° 0 mm 2 m/S 732 mmHg 17%
12:00 +37°C° 0 mm 2 m/S 732 mmHg 16%
13:00 +38°C° 0 mm 2 m/S 731 mmHg 15%
14:00 +40°C° 0 mm 2 m/S 731 mmHg 13%
15:00 +40°C° 0 mm 2 m/S 731 mmHg 13%
16:00 +40°C° 0 mm 2 m/S 731 mmHg 13%
17:00 +40°C° 0 mm 2 m/S 730 mmHg 13%
18:00 +38°C° 0 mm 2 m/S 730 mmHg 15%
19:00 +36°C° 0 mm 2 m/S 730 mmHg 16%
20:00 +32°C° 0 mm 2 m/S 730 mmHg 18%
21:00 +31°C° 0 mm 1 m/S 730 mmHg 18%
22:00 +30°C° 0 mm 1 m/S 730 mmHg 19%
23:00 +30°C° 0 mm 1 m/S 730 mmHg 19%

28 Juni, Montag

Zeit Temperatur Niederschläge Wind Luftdruck Luftfeuchtigkeit
00:00 +29°C° 0 mm 1 m/S 730 mmHg 20%
01:00 +28°C° 0 mm 1 m/S 730 mmHg 21%
02:00 +27°C° 0 mm 1 m/S 730 mmHg 22%
03:00 +26°C° 0 mm 1 m/S 730 mmHg 23%
04:00 +26°C° 0 mm 1 m/S 730 mmHg 23%
05:00 +25°C° 0 mm 1 m/S 730 mmHg 24%
06:00 +27°C° 0 mm 1 m/S 731 mmHg 23%
07:00 +29°C° 0 mm 1 m/S 731 mmHg 22%
08:00 +31°C° 0 mm 1 m/S 731 mmHg 21%
09:00 +35°C° 0 mm 2 m/S 731 mmHg 18%
10:00 +37°C° 0 mm 2 m/S 731 mmHg 16%
11:00 +39°C° 0 mm 3 m/S 731 mmHg 14%
12:00 +40°C° 0 mm 3 m/S 731 mmHg 13%
13:00 +42°C° 0 mm 3 m/S 730 mmHg 12%
14:00 +43°C° 0 mm 4 m/S 730 mmHg 11%
15:00 +43°C° 0 mm 3 m/S 730 mmHg 11%
16:00 +43°C° 0 mm 3 m/S 730 mmHg 11%
17:00 +43°C° 0 mm 3 m/S 730 mmHg 10%
18:00 +40°C° 0 mm 3 m/S 730 mmHg 14%
19:00 +37°C° 0 mm 3 m/S 730 mmHg 17%
20:00 +34°C° 0 mm 4 m/S 730 mmHg 21%
21:00 +33°C° 0 mm 3 m/S 730 mmHg 24%
22:00 +30°C° 0 mm 2 m/S 730 mmHg 27%
23:00 +29°C° 0 mm 1 m/S 730 mmHg 30%

29 Juni, Dienstag

Zeit Temperatur Niederschläge Wind Luftdruck Luftfeuchtigkeit
00:00 +28°C° 0 mm 2 m/S 730 mmHg 30%
01:00 +28°C° 0 mm 2 m/S 730 mmHg 30%
02:00 +27°C° 0 mm 2 m/S 730 mmHg 30%
03:00 +26°C° 0 mm 2 m/S 730 mmHg 31%
04:00 +26°C° 0 mm 1 m/S 730 mmHg 31%
05:00 +25°C° 0 mm 1 m/S 730 mmHg 31%
06:00 +27°C° 0 mm 2 m/S 730 mmHg 29%
07:00 +29°C° 0 mm 2 m/S 731 mmHg 27%
08:00 +31°C° 0 mm 2 m/S 731 mmHg 25%
09:00 +34°C° 0 mm 2 m/S 731 mmHg 22%
10:00 +37°C° 0 mm 3 m/S 731 mmHg 19%
11:00 +39°C° 0 mm 3 m/S 731 mmHg 16%
12:00 +40°C° 0 mm 3 m/S 731 mmHg 15%
13:00 +42°C° 0 mm 3 m/S 731 mmHg 13%
14:00 +43°C° 0 mm 3 m/S 730 mmHg 12%
15:00 +43°C° 0 mm 3 m/S 730 mmHg 12%
16:00 +43°C° 0 mm 4 m/S 730 mmHg 11%
17:00 +43°C° 0 mm 4 m/S 730 mmHg 11%
18:00 +41°C° 0 mm 4 m/S 730 mmHg 14%
19:00 +37°C° 0 mm 3 m/S 730 mmHg 17%
20:00 +35°C° 0 mm 3 m/S 730 mmHg 20%
21:00 +33°C° 0 mm 3 m/S 730 mmHg 22%
22:00 +31°C° 0 mm 3 m/S 730 mmHg 24%
23:00 +29°C° 0 mm 3 m/S 730 mmHg 26%

30 Juni, Mittwoch

Zeit Temperatur Niederschläge Wind Luftdruck Luftfeuchtigkeit
00:00 +29°C° 0 mm 2 m/S 730 mmHg 27%
01:00 +28°C° 0 mm 2 m/S 730 mmHg 28%
02:00 +27°C° 0 mm 2 m/S 730 mmHg 29%
03:00 +27°C° 0 mm 2 m/S 730 mmHg 30%
04:00 +26°C° 0 mm 2 m/S 730 mmHg 31%
05:00 +26°C° 0 mm 2 m/S 730 mmHg 31%
06:00 +28°C° 0 mm 2 m/S 730 mmHg 29%
07:00 +30°C° 0 mm 2 m/S 731 mmHg 26%
08:00 +34°C° 0 mm 3 m/S 731 mmHg 23%
09:00 +36°C° 0 mm 2 m/S 731 mmHg 21%
10:00 +38°C° 0 mm 2 m/S 731 mmHg 18%
11:00 +40°C° 0 mm 2 m/S 731 mmHg 16%
12:00 +42°C° 0 mm 3 m/S 731 mmHg 15%
13:00 +43°C° 0 mm 3 m/S 730 mmHg 13%
14:00 +44°C° 0 mm 4 m/S 730 mmHg 12%
15:00 +44°C° 0 mm 3 m/S 729 mmHg 11%
16:00 +44°C° 0 mm 3 m/S 729 mmHg 11%
17:00 +44°C° 0 mm 3 m/S 729 mmHg 11%
18:00 +42°C° 0 mm 3 m/S 729 mmHg 14%
19:00 +38°C° 0 mm 3 m/S 729 mmHg 17%
20:00 +35°C° 0 mm 4 m/S 729 mmHg 20%
21:00 +34°C° 0 mm 3 m/S 729 mmHg 21%
22:00 +31°C° 0 mm 3 m/S 729 mmHg 23%
23:00 +30°C° 0 mm 2 m/S 729 mmHg 25%
Mehr zeigen

Wir brauchen deine Erlaubnis

Meteoprog und unser Service Anbieter werden persönliche Daten aufbewahren, so wie Cookies, Geräte Bezeichnung oder ähnliche Technologien von deinem Gerät und Prozess, so wie Persönliche Daten Inhalte und Werbungen, genauso wie social Media und den Verkehr zu analysieren.

  • Aufbewahrung und/oder Zugang zu deiner Geräte Informationen.

    Cookies, Geräte Bezeichnung oder andere Informationen, können aufbewahrt oder Zugang zu deinem Gerät erhalten, für den Grund, der oben angegeben wird.

  • Personalisierte Werbung und Inhalte, Messungen, Einblick in das Publikum und Produkt Entwicklung.

    Werbungen und Inhalte können personalisiert werden, basierend auf ein Profil. Mehr Daten können besser personalisierte Werbungen und Inhalte hinzufügen. Werbung und Inhalte können gezeigt und gemessen werden. Einblicke über das Publikum, welche die Werbung gesehen haben und den Inhalt, können abgeleitet werden. So wie Daten können genutzt werden, um es zu verbessern oder die Benutzer Erfahrung zu verbessern das System und die Software.

Wenn du “Ich stimme zu” klickst, erlaubst du uns, die Cookies zu benutzen die Geräte Bezeichnung, den Web oder ähnliche Technologien zu benutzen. Deine Settings, können in deinem Gerät bei deinem Browser geändert werden.

Für den bestimmten Zweck, berechtigten Interessen beruhen darauf, mehr als auf den Inhalt. Du kannst mehr darüber in unseren Privaten und Cookie Politik lesen.